This is the latest recevied weather packets stored in our database for station/object KC3DGM. If no packets are shown the sender has not sent any weather packets the latest 10 day(s).
| Time | Temp. | Humidity | Pressure | Rain* | Wind** | Luminosity | Snow |
|---|---|---|---|---|---|---|---|
| 1777989506 | 15.56° C | 85% | 978.5 hPa | 1.78 mm | - | 70 W/m² | - |
| 1777989202 | 16.11° C | 83% | 978.6 hPa | 1.27 mm | - | 50 W/m² | - |
| 1777988898 | 16.67° C | 80% | 978.6 hPa | 1.27 mm | - | 41 W/m² | - |
| 1777988595 | 16.67° C | 78% | 978.6 hPa | 0 mm | - | 54 W/m² | - |
| 1777988292 | 17.22° C | 76% | 978.4 hPa | 0 mm | - | 59 W/m² | - |
| 1777987989 | 17.22° C | 74% | 978.4 hPa | 0 mm | - | 62 W/m² | - |
| 1777987684 | 17.22° C | 73% | 978 hPa | 0 mm | - | 55 W/m² | - |
| 1777987382 | 17.78° C | 71% | 978.1 hPa | 0 mm | - | 49 W/m² | - |
| 1777987079 | 17.78° C | 71% | 978.1 hPa | 0 mm | - | 49 W/m² | - |
| 1777986776 | 17.78° C | 71% | 978 hPa | 0 mm | - | 48 W/m² | - |
| 1777986474 | 18.33° C | 71% | 978.4 hPa | 0 mm | - | 60 W/m² | - |
| 1777986172 | 18.33° C | 69% | 978.2 hPa | 0 mm | - | 75 W/m² | - |
| 1777985869 | 18.33° C | 69% | 978.2 hPa | 0 mm | - | 103 W/m² | - |
| 1777985566 | 18.33° C | 69% | 978.4 hPa | 0 mm | - | 121 W/m² | - |
| 1777985262 | 18.33° C | 69% | 978.1 hPa | 0 mm | - | 77 W/m² | - |
| 1777984959 | 18.33° C | 69% | 978.1 hPa | 0 mm | - | 70 W/m² | - |
| 1777984655 | 18.33° C | 69% | 978.2 hPa | 0 mm | - | 98 W/m² | - |
| 1777984352 | 18.33° C | 69% | 978.1 hPa | 0 mm | - | 91 W/m² | - |
| 1777984048 | 18.33° C | 69% | 978.2 hPa | 0 mm | - | 99 W/m² | - |
| 1777983746 | 18.33° C | 69% | 978 hPa | 0 mm | - | 101 W/m² | - |
| 1777983442 | 18.33° C | 69% | 978.1 hPa | 0 mm | - | 95 W/m² | - |
| 1777983139 | 17.78° C | 70% | 978.1 hPa | 0 mm | - | 79 W/m² | - |
| 1777982835 | 17.78° C | 70% | 977.9 hPa | 0 mm | - | 68 W/m² | - |
| 1777982531 | 17.78° C | 70% | 978.1 hPa | 0 mm | - | 62 W/m² | - |
| 1777982225 | 17.78° C | 70% | 978 hPa | 0 mm | - | 65 W/m² | - |
* Rain latest hour (hover to see other rain measurements)
** Current wind speed in m/s (hover to see current wind gust speed)